Temperature
31 30 29 30 31 31 31 31 32 33 34 33 32 32 33 32 31 31 31 31 29 28 27 26 24 23 23 22 22 21 21 21 20 21 20 21 21 20 20 20 19 18 18 17
30 28 30 31 31 31 31 31 31 32 33 32 31 32 33 33 32 31 30 28 26 26 24 22 21 21 22 21 21 21 20 20 20 21 21 21 21 20 20 20 19 19 18 17
29 29 31 31 31 30 30 30 30 30 31 31 31 31 32 32 30 27 24 23 22 20 18 18 17 18 20 21 21 21 21 21 20 21 21 21 20 20 20 20 19 19 18 17
30 31 31 31 30 30 29 30 30 30 30 30 31 29 30 29 26 23 21 19 17 16 17 17 17 17 18 19 20 20 21 21 20 20 20 20 20 20 20 20 20 19 19 18
29 30 30 30 30 30 30 31 30 30 29 29 29 28 28 28 24 21 20 18 16 16 16 16 16 17 18 19 19 18 19 19 19 19 19 19 20 20 20 20 19 19 19 18
29 31 31 31 31 31 31 30 30 29 26 23 22 23 26 26 24 22 20 18 16 16 16 16 16 16 17 18 18 18 18 18 18 18 18 18 18 18 19 19 19 19 18 18
26 30 31 32 31 31 30 29 28 26 22 20 21 22 24 24 23 22 20 18 17 16 16 15 15 15 15 15 15 16 16 16 16 16 16 17 17 17 17 18 18 18 18 18
24 26 30 31 30 29 29 29 27 26 26 27 25 24 21 21 21 21 20 19 18 17 16 16 15 15 15 14 14 14 15 15 15 15 15 15 15 15 16 16 16 17 17 17
28 28 31 32 31 30 29 29 29 28 28 27 27 22 19 19 19 20 20 19 18 18 17 16 16 15 14 14 14 14 14 14 15 15 15 14 14 14 14 15 15 16 16 16
30 28 30 31 32 31 30 29 28 27 26 26 27 24 20 18 18 19 20 19 18 18 17 16 16 15 15 14 14 13 13 13 14 14 14 14 15 15 14 14 14 14 15 15
30 28 29 30 28 28 29 29 28 28 27 25 25 23 21 19 19 19 19 18 17 17 16 16 15 15 14 14 14 13 12 12 12 12 12 12 13 13 14 14 14 14 14 14
29 28 27 28 28 27 28 28 28 26 25 26 25 21 20 19 18 18 18 17 17 16 15 15 15 14 14 13 13 12 12 12 11 11 11 11 11 11 11 12 13 13 13 14
27 26 25 27 27 27 28 29 28 27 26 25 23 19 19 19 19 18 18 17 16 16 15 15 14 14 13 13 12 12 11 11 11 11 11 11 11 11 10 10 11 11 12 12
27 26 26 25 27 28 28 28 27 26 25 24 23 21 20 19 19 18 17 16 16 16 16 16 15 14 13 13 13 12 12 11 11 11 11 11 11 10 10 10 10 10 10 10
28 26 26 27 28 29 27 26 25 24 23 23 22 22 21 19 18 18 17 17 17 16 16 16 15 14 14 13 13 12 12 12 11 11 11 10 10 10 10 10 10 9 9 9
27 26 26 26 28 28 25 24 24 23 23 22 21 21 21 19 18 18 17 17 16 16 15 15 14 14 13 13 12 12 12 12 11 11 11 11 10 10 10 10 10 10 9 9
26 24 24 25 27 27 23 21 22 21 22 21 21 20 19 18 18 17 17 16 16 15 14 14 13 13 13 12 12 12 11 11 11 10 10 10 10 10 10 10 10 10 10 9
25 24 24 25 26 23 21 22 22 21 21 21 19 18 18 17 17 16 16 16 15 14 13 13 12 12 12 12 11 11 11 10 10 10 9 9 9 9 9 9 10 10 10 9
26 25 24 25 24 23 22 22 21 20 20 19 18 18 17 16 16 16 16 14 14 13 13 12 12 12 11 11 11 11 10 10 9 9 9 8 8 8 8 9 9 9 9 9
26 26 25 24 23 22 20 21 21 21 20 18 17 17 16 16 15 15 14 13 13 13 12 12 12 11 11 11 11 10 10 9 9 8 8 8 7 7 7 8 8 8 8 9
24 25 24 23 22 22 21 21 20 18 17 17 16 16 15 15 14 14 13 13 13 12 12 12 11 11 11 10 10 10 9 9 8 8 7 7 6 7 7 7 7 8 8 8
24 23 22 22 21 21 21 20 18 17 17 16 15 15 14 14 14 13 13 13 12 12 12 11 11 11 10 10 10 9 8 8 7 6 6 6 6 6 6 6 7 7 7 7
23 21 21 21 21 21 19 19 18 17 16 15 15 14 14 14 13 13 13 12 12 12 11 11 10 10 10 9 8 7 6 6 5 5 5 5 5 5 6 6 6 6 7 7
23 22 22 21 21 20 18 18 17 16 15 15 14 14 13 13 13 13 12 12 11 11 10 10 9 8 7 7 6 5 5 4 4 4 4 4 5 5 5 5 6 6 6 7
22 23 21 20 20 18 18 16 16 15 15 14 14 13 13 13 12 12 12 11 11 10 9 7 6 5 5 4 4 3 3 3 3 3 4 4 4 5 5 5 5 6 6 6
22 21 19 18 18 17 16 16 15 15 14 14 13 13 12 12 12 11 11 10 9 8 6 5 4 3 3 3 3 3 3 3 3 3 4 4 4 4 5 5 5 5 6 6
Wind_Speed
9 8 7 6 8 10 11 14 15 9 4 1 8 13 10 4 7 10 8 7 9 10 11 3 4 8 12 11 9 7 7 7 4 2 2 2 2 0 0 3 6 2 1 1
2 7 10 7 7 10 10 11 12 10 8 7 10 14 14 9 9 6 5 5 3 3 2 10 9 7 8 9 8 6 7 8 6 5 3 2 2 1 1 2 4 3 2 0
2 7 10 8 9 11 10 10 12 11 10 11 15 17 16 9 5 10 13 13 12 15 18 21 18 12 7 6 5 6 7 7 5 7 4 4 3 3 3 3 3 4 2 1
6 5 7 9 9 10 10 8 10 12 13 13 14 13 6 5 12 16 19 21 19 20 21 19 15 14 16 14 10 7 4 4 3 4 3 2 2 2 1 2 2 4 3 4
7 9 8 7 8 10 11 12 14 15 14 15 13 11 3 12 14 17 18 17 17 18 18 17 13 13 15 18 19 18 15 10 7 5 6 5 5 5 3 2 3 4 5 6
16 8 4 5 8 10 10 13 16 13 6 8 10 10 1 6 11 15 16 17 17 17 16 14 13 12 13 15 15 15 17 18 18 16 13 10 9 9 9 8 6 4 4 6
17 9 5 4 8 9 12 12 10 7 1 7 12 10 2 9 14 15 16 16 16 15 15 14 14 13 13 15 14 14 15 14 14 16 17 16 13 9 10 10 9 7 5 5
5 8 7 5 6 8 11 10 10 15 13 7 12 5 7 13 14 14 14 14 14 13 13 13 12 12 12 12 12 12 12 11 11 11 11 12 14 12 10 11 10 8 4 3
6 8 9 8 6 5 7 10 15 14 15 14 2 8 8 10 10 9 10 11 11 10 10 10 9 9 9 8 9 9 9 9 10 10 10 8 9 10 11 12 11 9 8 8
10 13 14 11 10 5 4 9 8 8 11 14 15 3 4 8 7 3 6 9 9 8 8 8 7 7 7 6 5 6 7 8 9 9 9 10 9 8 8 9 10 10 11 10
15 13 14 12 9 13 8 9 9 8 10 12 16 6 7 8 6 6 7 8 8 10 10 10 9 9 9 9 9 7 7 7 8 8 9 9 10 10 9 8 7 8 9 10
12 12 13 13 7 11 12 9 8 8 10 11 14 5 8 8 6 6 7 9 10 11 12 12 12 11 9 9 8 8 7 8 7 7 7 8 8 9 10 10 9 9 9 9
10 7 11 8 2 4 9 10 9 8 9 11 11 2 1 1 3 6 10 12 13 14 15 15 14 12 11 10 10 10 10 11 11 10 9 9 9 9 9 9 10 10 10 10
3 7 11 15 17 16 14 11 9 8 9 12 13 7 3 4 8 12 14 15 16 17 17 16 12 9 9 10 10 11 12 12 13 12 12 11 12 11 10 10 11 11 11 11
5 10 14 18 19 16 11 10 12 11 11 12 16 18 10 5 10 14 16 17 20 21 19 13 11 10 9 9 8 9 10 10 11 12 12 13 13 12 12 11 12 12 12 13
10 11 15 18 17 9 8 12 12 11 12 14 17 18 10 11 14 16 19 22 24 20 17 17 16 14 13 11 11 11 10 10 9 9 10 11 13 14 14 13 13 13 13 13
10 13 13 13 15 10 7 11 11 12 13 16 20 18 15 16 18 21 24 26 21 19 21 21 19 15 13 13 11 11 10 10 10 10 11 11 11 13 14 16 14 13 13 13
7 10 7 10 12 7 6 7 10 13 15 16 15 16 18 20 21 20 21 20 21 24 24 21 20 19 17 16 15 11 13 12 12 12 12 12 12 13 12 12 13 12 11 10
7 6 7 8 13 4 6 10 14 17 18 12 16 20 23 25 25 22 20 23 24 24 21 19 22 23 18 17 15 14 15 13 14 15 13 14 14 13 13 13 12 10 10 9
12 9 7 9 12 9 6 13 17 17 10 15 22 23 25 26 23 21 24 25 24 23 21 20 21 21 17 14 14 15 17 15 15 15 14 14 14 14 15 13 12 11 10 10
11 10 10 11 13 4 9 16 18 12 14 22 23 24 25 23 22 24 27 25 23 22 21 20 19 18 15 13 13 15 15 15 15 15 14 15 14 14 15 14 12 11 11 12
7 8 8 9 9 6 14 14 13 13 17 21 23 24 24 25 26 25 25 23 23 24 23 23 18 17 14 13 13 15 15 14 14 15 17 17 16 17 17 12 11 10 10 11
4 5 5 6 8 10 13 13 15 17 20 20 23 25 25 26 27 28 25 23 24 23 22 22 20 18 14 12 12 16 15 14 16 18 19 19 18 15 14 13 12 11 9 10
5 3 6 8 10 14 14 16 18 19 20 22 23 25 25 27 28 28 26 25 24 23 22 22 22 22 20 18 18 17 17 16 18 19 18 16 15 14 13 11 11 10 10 9
2 6 9 11 12 14 14 17 19 20 21 23 24 24 25 27 27 27 25 24 24 23 22 23 23 23 24 22 22 20 19 17 17 17 16 15 13 12 11 11 10 11 9 8
5 6 6 8 12 13 17 18 20 21 22 24 24 25 25 25 26 26 25 23 23 24 24 24 24 25 25 24 22 20 17 16 16 14 13 10 9 9 9 9 10 12 11 9
Wind_Direction
257 266 291 321 334 324 311 310 312 322 22 264 271 284 290 295 282 276 263 233 215 209 224 201 136 130 124 123 128 146 163 144 172 164 155 155 116 39 63 120 115 131 228 81
313 336 305 324 318 305 310 304 309 323 329 305 283 279 277 244 233 263 281 287 289 270 25 29 18 59 97 111 120 140 142 146 175 125 102 103 84 289 272 78 144 178 209 213
282 233 270 301 313 314 312 322 326 314 299 279 273 269 263 260 41 39 36 32 39 45 48 42 21 24 45 86 139 164 137 146 170 140 173 167 163 229 228 193 184 172 172 190
317 289 302 307 313 313 312 326 310 302 292 281 280 281 278 131 72 52 47 46 44 56 58 57 45 28 26 27 24 36 102 153 167 168 249 248 220 242 255 214 197 151 178 213
302 293 297 299 312 307 306 311 298 289 284 284 297 289 58 84 75 61 58 59 56 57 60 60 47 32 30 35 30 18 20 24 6 342 327 323 300 287 276 237 192 175 218 213
310 284 285 310 306 305 305 294 286 282 306 318 326 311 350 73 86 83 68 59 54 54 56 55 49 37 30 34 35 23 26 24 16 10 359 339 317 312 311 307 291 245 231 211
311 306 293 303 324 340 328 313 308 312 233 215 219 245 165 79 72 77 73 66 60 56 53 50 45 38 33 31 28 25 26 23 20 19 15 10 357 330 301 287 276 253 248 244
267 296 287 312 333 327 319 313 311 320 320 309 199 205 91 71 69 71 71 68 61 57 55 53 47 40 33 29 24 21 18 15 15 16 13 19 16 7 350 336 320 301 283 284
303 312 314 313 303 293 315 330 330 320 310 311 328 118 121 93 60 43 54 58 53 51 51 48 44 37 27 20 17 9 5 1 3 4 356 6 9 0 354 350 348 341 335 319
321 314 312 307 291 253 270 314 314 318 319 317 319 111 147 134 148 131 50 40 29 21 22 20 13 9 359 348 350 348 346 343 343 347 347 346 347 342 338 342 349 351 345 336
326 315 307 313 342 328 316 321 326 318 318 318 313 13 64 96 69 49 33 16 2 351 348 342 338 337 335 335 341 345 343 337 333 335 336 332 331 329 326 322 334 340 338 337
340 328 318 313 350 325 309 313 316 316 316 310 308 36 43 57 44 11 346 342 336 330 324 318 314 312 312 314 316 313 310 301 295 294 296 299 304 310 314 316 322 323 322 324
342 325 313 314 344 263 291 304 325 335 320 314 322 16 61 13 343 341 339 333 325 319 312 305 297 292 287 282 279 277 274 272 270 269 270 274 279 283 286 291 298 305 308 309
307 295 295 305 312 319 318 335 6 356 336 327 337 343 286 305 334 338 330 319 316 314 308 303 296 285 281 273 265 262 263 262 261 256 255 258 263 266 269 273 277 280 284 289
336 315 324 317 314 320 343 22 24 15 360 334 331 327 338 1 339 327 320 320 321 317 314 323 329 321 311 306 297 288 278 274 269 263 259 258 258 258 259 261 264 267 270 273
345 330 321 312 313 331 53 39 21 9 355 336 324 319 355 350 333 325 325 324 316 317 331 331 323 318 314 311 306 300 293 289 280 277 278 272 265 261 258 256 256 256 259 260
358 345 325 309 311 310 59 30 13 355 344 333 322 331 349 337 327 326 325 315 318 336 329 322 319 315 310 307 300 293 295 298 299 294 290 287 282 275 263 260 256 250 251 253
12 343 313 309 328 356 75 37 4 341 334 344 358 357 342 330 328 323 313 325 338 328 321 318 315 310 304 300 298 295 297 294 294 294 294 294 291 289 285 270 261 257 255 254
20 349 320 340 336 10 100 28 360 334 320 23 355 339 334 331 320 314 329 334 323 317 315 312 308 304 301 298 294 291 290 289 289 290 290 291 289 287 288 287 278 271 265 260
1 325 320 345 331 346 40 6 349 324 299 9 346 335 331 326 320 320 325 319 316 314 309 304 303 300 296 292 290 287 287 285 285 287 288 289 287 283 281 281 283 283 280 271
346 345 356 341 325 49 14 356 349 337 327 333 330 328 325 322 313 312 315 315 313 309 306 304 301 299 296 291 287 284 286 287 291 292 293 290 285 280 276 272 269 270 273 272
355 358 355 336 332 358 5 356 354 328 326 329 327 323 320 316 313 313 313 313 310 310 309 308 305 300 294 290 290 293 295 299 300 299 296 290 283 277 274 269 267 263 264 268
40 47 335 332 316 349 5 351 346 339 331 327 323 322 319 316 315 315 314 313 313 313 312 311 308 304 303 305 308 306 305 304 299 295 290 285 280 273 267 264 264 262 257 258
94 21 320 319 318 350 349 346 341 334 328 325 323 321 319 317 316 316 316 317 317 317 318 319 319 319 319 320 318 311 305 300 295 290 286 281 276 271 264 256 254 254 250 248
350 350 335 314 339 338 336 337 332 328 328 324 324 323 321 319 318 320 320 321 322 325 328 331 328 323 318 315 309 303 299 293 286 283 281 277 272 267 264 259 252 248 243 237
42 22 339 321 333 323 323 330 329 330 329 329 328 326 324 324 323 324 324 327 330 333 332 327 322 316 312 308 303 299 294 287 283 280 277 272 268 266 261 256 256 238 228 226
Height
1477 1480 1482 1475 1468 1468 1464 1462 1458 1449 1443 1451 1457 1455 1451 1452 1457 1457 1456 1455 1456 1456 1461 1459 1457 1456 1457 1467 1473 1478 1482 1483 1487 1491 1494 1496 1499 1501 1502 1502 1501 1501 1502 1502
1479 1490 1477 1470 1467 1467 1465 1466 1462 1454 1449 1453 1457 1456 1449 1449 1452 1455 1456 1457 1457 1456 1458 1455 1453 1447 1458 1470 1477 1481 1483 1485 1487 1490 1492 1495 1497 1499 1501 1501 1500 1500 1500 1500
1482 1485 1473 1470 1470 1471 1470 1471 1469 1467 1458 1455 1458 1458 1449 1446 1453 1458 1461 1463 1463 1465 1464 1461 1460 1458 1469 1477 1480 1483 1486 1487 1489 1490 1492 1494 1496 1498 1499 1499 1499 1498 1498 1498
1476 1473 1471 1472 1472 1471 1474 1465 1465 1464 1467 1467 1459 1470 1453 1451 1461 1467 1468 1472 1474 1473 1472 1473 1473 1477 1479 1481 1481 1483 1486 1488 1490 1491 1492 1494 1496 1497 1497 1497 1497 1496 1496 1495
1481 1473 1472 1474 1472 1468 1468 1462 1463 1463 1466 1471 1468 1473 1465 1454 1469 1476 1478 1481 1480 1478 1478 1478 1483 1484 1483 1480 1480 1482 1484 1487 1489 1490 1491 1492 1493 1495 1495 1495 1494 1493 1493 1492
1479 1470 1468 1468 1466 1463 1461 1462 1460 1461 1477 1501 1498 1496 1480 1466 1472 1479 1482 1483 1481 1480 1480 1482 1483 1484 1483 1481 1481 1483 1484 1485 1486 1486 1487 1488 1490 1491 1492 1492 1491 1490 1490 1489
1491 1474 1467 1465 1467 1464 1465 1472 1481 1485 1504 1511 1497 1496 1487 1478 1479 1482 1485 1486 1486 1485 1484 1485 1486 1486 1485 1484 1484 1483 1484 1484 1484 1484 1483 1483 1484 1485 1486 1488 1487 1487 1486 1486
1508 1497 1472 1464 1468 1472 1469 1471 1486 1493 1487 1476 1480 1486 1492 1488 1490 1492 1492 1491 1491 1491 1490 1489 1489 1489 1489 1488 1487 1486 1485 1485 1483 1482 1482 1480 1479 1479 1480 1480 1480 1481 1482 1482
1487 1484 1465 1461 1462 1465 1471 1471 1466 1474 1471 1473 1471 1488 1493 1492 1496 1497 1496 1496 1496 1496 1495 1494 1493 1492 1491 1490 1489 1488 1486 1485 1483 1482 1481 1480 1478 1477 1476 1475 1474 1474 1475 1476
1475 1482 1468 1461 1459 1459 1464 1466 1470 1479 1490 1490 1474 1482 1496 1501 1500 1498 1499 1499 1500 1499 1498 1496 1495 1494 1493 1492 1490 1487 1485 1483 1481 1479 1478 1477 1475 1474 1473 1472 1470 1468 1468 1468
1473 1481 1474 1466 1472 1473 1467 1469 1470 1474 1479 1493 1494 1496 1492 1497 1499 1500 1501 1502 1502 1501 1499 1497 1495 1493 1491 1490 1488 1486 1483 1480 1478 1476 1473 1471 1469 1468 1467 1466 1465 1464 1463 1462
1478 1481 1484 1477 1472 1475 1469 1470 1472 1486 1488 1483 1488 1507 1499 1501 1503 1504 1503 1503 1502 1501 1499 1496 1493 1490 1488 1486 1484 1482 1480 1478 1475 1472 1469 1466 1464 1462 1460 1458 1457 1457 1457 1457
1487 1493 1498 1487 1482 1477 1473 1468 1468 1475 1483 1488 1499 1512 1502 1502 1503 1503 1503 1502 1501 1499 1495 1492 1489 1486 1483 1481 1479 1477 1475 1472 1470 1467 1464 1462 1459 1457 1454 1452 1450 1449 1448 1448
1489 1492 1498 1501 1487 1473 1471 1469 1471 1479 1488 1493 1494 1500 1498 1499 1501 1502 1502 1500 1497 1494 1490 1486 1483 1480 1478 1476 1474 1471 1469 1466 1464 1461 1458 1455 1453 1451 1448 1446 1444 1441 1440 1439
1488 1491 1488 1483 1473 1469 1474 1478 1481 1487 1493 1497 1496 1494 1492 1498 1501 1500 1498 1495 1492 1489 1485 1481 1479 1477 1474 1472 1469 1467 1464 1461 1458 1455 1452 1449 1447 1444 1442 1440 1438 1436 1434 1431
1490 1493 1491 1487 1475 1473 1483 1489 1491 1493 1496 1497 1497 1496 1494 1497 1498 1497 1495 1492 1488 1483 1480 1478 1476 1473 1470 1466 1463 1460 1458 1455 1452 1449 1446 1444 1441 1438 1436 1434 1432 1430 1429 1427
1495 1501 1501 1495 1478 1476 1498 1503 1502 1502 1500 1500 1500 1497 1495 1497 1497 1495 1492 1488 1482 1480 1478 1474 1471 1467 1463 1460 1456 1453 1450 1447 1445 1442 1439 1437 1434 1431 1429 1427 1425 1424 1423 1422
1499 1502 1500 1491 1486 1503 1511 1502 1503 1504 1501 1500 1500 1502 1501 1499 1496 1494 1489 1482 1480 1477 1473 1469 1465 1461 1457 1453 1449 1445 1442 1440 1437 1434 1431 1429 1427 1424 1422 1420 1418 1417 1417 1417
1495 1499 1500 1497 1498 1499 1505 1505 1506 1507 1503 1505 1505 1503 1500 1497 1492 1488 1485 1482 1478 1474 1468 1464 1459 1454 1448 1445 1441 1437 1434 1431 1429 1426 1423 1421 1419 1416 1414 1412 1411 1410 1410 1410
1495 1495 1496 1501 1508 1509 1513 1508 1507 1504 1498 1504 1503 1501 1499 1494 1487 1482 1481 1477 1472 1467 1462 1456 1450 1445 1440 1436 1432 1428 1424 1422 1419 1416 1414 1411 1409 1407 1405 1403 1402 1402 1402 1403
1505 1500 1504 1508 1509 1505 1511 1508 1508 1512 1512 1506 1504 1500 1497 1493 1489 1481 1475 1470 1465 1459 1453 1448 1442 1436 1431 1427 1422 1417 1414 1411 1409 1406 1403 1401 1399 1397 1395 1394 1394 1394 1394 1395
1509 1511 1514 1513 1515 1517 1510 1511 1514 1517 1511 1507 1503 1499 1494 1489 1482 1476 1470 1464 1457 1451 1445 1439 1433 1427 1422 1418 1412 1406 1403 1401 1398 1395 1392 1389 1388 1387 1386 1385 1384 1385 1386 1387
1509 1519 1519 1518 1520 1514 1514 1515 1515 1513 1510 1506 1501 1496 1490 1483 1477 1470 1463 1457 1450 1444 1437 1431 1425 1417 1412 1408 1403 1396 1392 1389 1385 1382 1379 1377 1375 1375 1375 1375 1375 1376 1377 1379
1512 1515 1515 1516 1513 1514 1515 1515 1514 1512 1508 1503 1498 1493 1486 1479 1472 1464 1457 1450 1444 1437 1430 1423 1416 1408 1402 1397 1391 1386 1380 1376 1372 1369 1366 1365 1364 1363 1364 1365 1366 1367 1369 1371
1514 1513 1517 1516 1515 1516 1515 1515 1512 1508 1504 1500 1495 1490 1483 1475 1468 1460 1453 1445 1438 1431 1424 1416 1408 1400 1392 1385 1378 1372 1367 1363 1359 1356 1354 1354 1353 1354 1355 1356 1357 1359 1361 1364
1513 1517 1520 1520 1519 1518 1515 1513 1509 1505 1501 1496 1490 1484 1479 1472 1465 1457 1449 1442 1434 1426 1418 1409 1400 1391 1381 1373 1366 1360 1355 1351 1348 1346 1345 1345 1345 1345 1346 1347 1349 1351 1354 1357